Wind_Speed
28 32 35 38 37 33 32 32 32 30 30 29 27 28 28 29 27 21 20 17 17 29 35 34 31 29 32 33 31 28 25 26 26 24 22 20 20 19 15 13 16 18 17 16 17 19 21 22 21 20 21 21 21 22 22 22 21 19 18 18 18 17 16 15 14 13 12 10 9 8 7 8 8 9 9 8 8 9 9 9 9 9 10 10 10 9
26 34 40 41 37 32 29 27 28 29 31 31 30 30 31 32 31 26 24 20 17 28 33 32 30 28 29 30 29 28 28 29 30 28 25 22 22 22 18 13 13 16 17 18 19 20 22 23 23 22 22 23 22 23 22 21 20 20 19 19 19 19 18 16 13 13 12 10 9 7 6 8 9 10 10 9 8 8 9 10 10 11 11 11 11 10
29 36 39 37 35 33 29 26 25 27 30 32 33 33 34 36 33 31 31 24 20 28 33 32 31 29 29 29 30 30 30 31 31 30 27 23 23 24 22 15 12 14 16 19 22 22 23 24 25 25 23 23 22 22 23 23 23 22 20 19 19 20 20 18 15 13 13 12 11 10 9 9 10 11 11 11 11 10 9 10 11 12 11 12 11 9
34 35 34 33 32 32 31 29 27 26 28 32 35 36 39 40 34 32 31 23 21 29 37 37 34 32 30 31 33 31 30 32 31 29 27 24 24 23 21 17 14 15 16 18 22 24 24 25 26 27 26 24 23 23 24 25 25 24 21 19 19 19 20 20 17 14 14 15 14 13 13 13 13 13 13 14 14 11 9 10 12 12 12 13 12 9
36 31 26 27 30 30 31 31 30 30 31 33 35 38 43 44 38 35 31 23 22 24 32 37 32 31 35 35 36 36 34 33 31 29 27 26 26 24 21 20 18 17 17 16 19 23 26 27 27 27 27 26 26 25 24 23 23 23 21 19 18 18 19 20 19 17 16 17 18 17 17 16 16 15 14 14 12 10 8 9 10 12 13 13 11 9
37 31 23 22 26 29 30 31 32 32 33 34 34 37 43 44 39 37 33 26 22 19 23 31 23 21 36 40 37 40 40 37 33 31 31 29 28 26 25 25 23 20 20 18 17 19 23 27 29 29 28 27 28 27 25 23 22 21 21 21 20 19 18 19 20 20 19 18 18 19 18 17 15 14 11 9 9 9 9 9 11 13 14 13 11 9
35 32 28 24 23 26 30 32 31 31 33 37 36 35 38 42 40 38 36 28 18 15 21 31 24 15 32 43 37 38 41 40 37 34 34 33 30 30 29 28 26 25 23 22 21 20 20 23 27 30 29 28 27 26 26 25 24 23 22 22 22 20 19 19 20 21 21 20 19 18 18 17 16 14 11 9 10 12 12 12 14 14 14 12 10 9
33 29 31 31 28 28 33 35 31 31 35 39 37 33 33 38 40 40 39 34 28 25 22 30 37 24 29 42 40 39 42 41 40 38 36 36 34 33 32 29 28 27 26 24 24 24 21 20 23 26 27 26 23 24 25 26 26 26 25 24 24 23 22 21 20 21 22 21 19 18 18 18 17 15 13 12 13 15 15 15 15 15 14 12 10 9
30 29 31 32 34 35 36 34 28 30 37 39 35 31 33 35 36 37 37 36 37 32 22 28 38 23 21 41 44 41 45 44 41 41 39 39 38 36 35 32 29 27 26 25 24 24 23 20 20 20 22 22 22 23 25 26 26 26 26 26 26 26 25 23 22 22 22 22 21 20 19 19 17 16 15 16 17 18 18 17 16 16 15 12 11 10
27 28 27 28 34 38 37 33 28 31 34 32 30 30 32 32 33 34 33 37 37 26 21 27 31 17 11 35 48 46 48 47 42 41 40 39 38 37 36 34 30 28 27 27 25 24 22 19 17 16 17 18 20 22 22 24 26 27 28 29 28 28 26 26 24 23 22 23 23 23 21 19 18 17 18 19 20 20 19 18 17 16 15 13 12 11
29 26 24 27 31 34 35 33 31 32 27 23 26 30 31 32 35 35 34 37 28 15 23 32 31 23 11 23 48 50 45 44 44 42 41 40 40 39 38 35 32 30 29 28 27 26 23 20 18 17 18 18 18 18 19 22 25 27 30 30 30 29 28 27 27 25 24 24 24 24 22 20 19 19 19 20 20 20 18 17 17 16 14 13 13 12
32 28 28 30 30 28 30 32 32 32 30 26 27 29 29 29 32 32 32 29 14 7 25 34 33 31 20 22 41 46 41 42 42 41 38 38 41 41 41 38 35 32 30 29 28 27 25 23 22 21 21 20 19 19 20 22 23 26 28 30 30 30 29 28 28 27 26 25 25 25 24 21 20 20 20 20 19 18 17 16 16 15 14 14 13 12
35 36 32 30 30 30 29 31 33 33 34 34 34 33 25 17 16 18 16 13 8 10 25 31 28 30 33 36 38 39 42 43 39 36 33 31 35 40 42 41 37 35 33 32 31 29 27 25 25 24 23 22 22 22 22 22 23 25 26 28 29 29 28 28 28 29 28 27 26 26 25 22 21 21 20 19 18 18 17 15 15 15 14 14 13 11
31 34 35 33 33 34 33 34 36 36 37 39 42 40 26 10 5 8 7 4 6 12 23 29 24 20 30 41 39 36 40 41 40 37 31 29 32 35 38 39 37 36 36 36 34 32 29 27 25 24 24 24 23 22 22 22 23 24 25 26 27 27 27 27 28 29 28 28 27 26 25 23 21 21 20 19 18 18 16 15 15 14 14 14 13 12
26 25 34 39 38 37 37 37 35 34 37 39 40 40 34 25 14 7 4 3 4 7 15 24 18 10 16 28 31 31 35 39 41 37 31 31 33 32 34 37 37 37 38 38 37 34 30 27 25 24 24 23 23 22 21 21 21 22 24 24 25 26 26 27 27 28 29 28 27 26 25 24 22 21 19 18 18 18 17 15 14 14 15 15 14 13
31 30 35 36 37 39 39 37 34 31 33 37 39 40 41 42 30 12 6 9 7 3 9 18 15 11 16 20 21 23 29 36 36 34 33 34 35 34 35 38 36 35 37 38 38 35 30 27 26 24 23 23 22 22 22 21 21 21 21 21 23 24 25 26 27 27 28 28 27 26 26 24 22 21 20 19 18 18 17 16 15 15 16 16 15 15
28 34 38 32 32 37 39 38 36 32 30 32 41 46 42 41 38 22 10 13 12 5 9 18 17 17 20 21 21 22 25 28 30 34 37 36 37 38 38 38 34 33 36 36 35 33 29 28 26 24 23 23 22 23 22 22 21 20 20 19 20 22 23 25 26 26 27 28 28 27 26 24 23 22 21 19 19 18 18 18 17 17 17 17 17 16
25 28 35 34 33 36 38 38 37 36 32 31 40 46 38 31 35 31 14 8 11 5 6 16 20 19 18 17 20 23 25 27 29 35 37 36 38 39 39 37 32 32 36 36 33 30 27 26 25 24 25 23 22 23 23 22 22 21 21 20 20 21 22 22 23 24 26 27 27 26 25 25 23 22 21 20 19 19 20 19 19 18 18 18 18 17
28 25 28 31 31 30 33 35 38 38 36 34 35 37 32 24 26 30 18 7 8 5 3 12 19 21 23 22 22 24 27 30 32 34 35 37 39 38 36 35 33 33 37 38 36 30 26 26 25 24 26 25 23 23 23 23 23 24 23 22 21 20 19 20 21 23 24 25 26 26 25 24 23 22 22 22 21 21 21 21 20 19 19 19 18 17
32 26 25 27 27 26 31 37 41 42 38 36 35 33 34 31 27 30 25 14 9 5 4 8 10 17 28 28 24 24 25 28 32 34 34 33 35 36 36 34 32 35 38 38 36 30 24 24 25 25 26 26 25 24 24 25 25 25 24 23 22 21 20 21 22 23 23 24 25 25 25 25 24 24 23 23 22 22 22 21 21 20 19 19 18 17
39 32 28 28 27 28 35 40 44 47 43 41 44 39 36 34 28 27 31 29 18 5 3 5 5 16 31 31 26 25 25 26 30 33 33 30 30 34 39 35 31 33 38 38 36 29 24 24 26 25 25 26 26 26 26 26 26 25 25 25 24 23 23 23 24 23 23 24 24 25 25 25 25 25 24 24 23 22 22 22 22 21 20 20 18 17
45 40 34 32 34 35 38 38 40 46 45 44 47 46 42 36 26 17 17 27 28 16 8 6 5 13 26 29 27 28 29 28 28 31 34 32 31 34 39 38 31 30 34 37 35 29 26 28 28 27 26 26 27 28 28 28 27 26 26 26 26 25 26 25 24 23 23 24 24 25 25 26 26 26 25 25 24 23 23 23 22 21 21 20 18 17
43 44 40 37 40 39 35 32 33 40 45 45 45 45 45 41 33 22 10 13 23 25 22 14 10 19 29 29 26 27 27 27 26 27 30 31 31 32 38 40 33 28 30 30 29 28 28 28 27 26 27 28 28 29 30 30 28 26 25 26 27 27 26 25 24 23 23 23 24 25 25 26 26 26 26 25 25 24 23 23 22 21 21 19 18 18
42 41 40 38 39 43 41 37 32 33 41 48 48 46 46 45 44 37 25 18 18 21 23 15 10 27 38 32 30 30 26 26 24 19 19 29 34 33 37 41 36 29 27 26 25 25 27 26 26 27 28 28 30 31 33 32 29 26 26 26 28 28 27 26 24 23 23 23 24 25 25 26 27 27 27 26 25 25 24 23 23 22 20 19 19 19
45 44 37 27 22 27 34 35 33 34 39 47 51 50 49 49 49 44 36 29 21 20 24 16 9 25 37 34 34 36 33 33 29 16 12 25 37 38 39 41 39 33 28 28 27 26 26 27 27 29 28 27 29 31 33 33 29 27 28 27 28 29 29 28 27 25 24 24 24 25 26 27 28 27 27 26 25 25 25 24 24 22 20 19 19 18
40 51 45 29 15 14 17 20 26 36 39 42 46 49 51 51 49 46 38 28 23 24 27 23 15 23 34 33 31 33 36 41 36 24 20 23 29 35 41 42 41 36 30 28 30 30 28 28 26 27 29 28 29 31 32 31 30 29 29 28 29 30 31 31 30 28 27 26 25 25 26 27 28 28 27 26 26 25 25 25 24 23 21 20 19 18
22 38 51 50 39 33 33 30 29 31 34 37 39 42 50 53 50 48 42 34 31 28 30 33 24 19 26 30 27 27 30 35 36 32 31 31 29 33 44 48 41 35 31 29 32 33 30 28 26 26 30 31 30 31 31 30 29 30 30 30 30 31 32 32 32 31 29 28 27 26 26 27 28 27 26 26 26 26 26 25 24 23 22 21 20 20
16 23 37 53 55 49 47 45 39 32 29 33 38 40 44 50 52 50 45 42 36 26 28 39 35 26 24 23 24 28 26 26 29 30 32 34 31 29 36 46 41 33 32 32 34 35 32 30 28 26 29 32 31 31 30 29 29 30 31 31 31 32 33 32 33 33 32 30 29 27 27 27 27 27 26 25 26 26 26 26 25 24 23 22 22 21
20 24 26 36 51 56 51 46 45 42 34 29 35 42 43 46 52 53 49 47 41 32 31 38 39 38 34 25 23 26 26 23 22 24 28 29 25 21 25 36 39 37 36 35 36 36 35 34 31 27 28 32 32 31 30 29 29 31 32 32 33 33 33 32 33 35 35 33 31 28 27 27 27 27 27 27 27 27 27 26 26 25 24 24 23 21
16 23 22 23 39 55 55 48 46 46 41 32 33 40 42 44 49 52 51 46 42 40 38 36 36 40 39 34 30 26 26 25 21 19 20 19 17 22 29 32 37 39 37 34 32 32 33 33 32 29 30 33 33 31 30 31 31 31 32 32 33 34 34 34 34 35 36 35 32 30 29 28 28 27 28 28 29 29 28 27 26 26 26 25 24 22
10 16 15 16 25 44 56 55 49 47 44 37 34 36 39 42 44 47 48 47 43 41 37 34 35 38 37 36 36 32 31 33 31 26 21 15 13 22 32 34 37 39 37 34 31 29 28 29 29 29 31 33 32 30 30 30 30 29 30 31 32 33 34 34 35 35 37 35 34 33 31 30 29 29 29 29 30 30 29 28 27 27 27 26 25 24
9 13 10 9 14 28 51 55 51 51 47 39 37 37 36 40 44 45 46 46 43 39 36 37 38 38 35 35 36 37 36 35 35 34 28 23 20 19 23 27 28 30 33 34 32 29 28 28 27 29 33 33 30 29 29 29 27 27 28 30 31 31 33 34 35 36 37 36 36 36 33 32 32 31 30 30 31 31 30 29 29 29 29 28 27 25
11 16 16 14 16 16 36 50 54 49 36 34 43 44 36 35 39 40 42 45 43 38 36 38 39 38 36 36 37 37 34 32 31 30 26 26 27 21 18 20 20 21 23 23 21 21 24 28 27 28 32 34 31 29 29 28 27 28 28 29 29 31 34 35 35 36 37 37 38 37 35 33 34 33 32 31 31 31 31 31 31 31 30 29 27 26
17 19 23 19 14 13 22 43 47 31 21 29 42 43 40 38 35 31 32 36 41 42 39 35 34 35 37 38 37 34 30 29 29 26 21 21 23 21 19 20 20 20 22 22 20 18 19 23 28 29 31 33 33 29 27 27 28 28 28 27 28 30 33 35 36 37 38 38 39 38 36 35 35 35 34 33 32 32 32 33 33 32 30 29 28 27
24 24 26 21 15 14 14 33 28 15 25 36 34 33 39 39 37 33 28 27 31 36 40 40 36 34 35 36 36 33 30 31 33 30 26 23 23 21 19 21 23 22 23 24 26 25 23 24 28 30 31 32 32 28 27 29 30 29 28 29 29 30 32 35 38 38 38 39 40 39 38 37 36 36 36 35 34 33 33 34 34 33 31 30 29 28
29 27 26 24 18 14 13 23 16 11 30 35 24 27 33 30 32 33 25 24 28 28 30 37 38 35 33 32 32 32 31 32 33 33 30 27 26 23 17 16 20 22 22 23 25 28 28 27 28 30 32 32 31 29 28 28 29 30 29 31 33 33 33 34 38 40 40 40 40 40 39 38 37 37 38 38 37 35 35 35 34 33 32 31 30 28
27 28 26 24 19 16 18 19 14 11 21 23 13 18 25 24 29 34 25 21 28 28 25 28 30 30 30 29 29 31 31 28 27 27 26 21 21 23 20 17 16 17 18 20 21 25 28 29 29 31 32 33 32 30 28 26 27 29 29 31 35 37 35 35 37 39 41 41 41 40 40 39 38 38 39 39 38 37 36 35 34 33 32 31 30 29
24 27 25 22 19 20 19 15 12 8 14 21 15 10 13 13 17 28 28 20 19 23 24 24 24 23 24 24 27 30 30 27 26 27 26 21 18 20 21 21 21 21 21 20 18 21 25 27 29 32 34 36 35 33 31 30 30 31 31 33 36 38 38 37 36 37 38 39 40 41 41 39 39 39 40 40 39 38 37 36 35 33 32 32 30 28
19 21 21 20 21 23 20 13 8 4 12 25 20 10 10 7 6 15 20 18 18 19 20 20 21 21 22 22 22 24 24 24 26 28 29 27 23 21 20 21 22 23 24 24 22 22 24 25 25 28 31 34 35 34 34 34 34 33 33 35 37 39 40 39 37 36 35 36 37 40 41 40 39 40 41 41 40 39 38 37 36 34 32 31 30 29
16 17 18 17 16 18 18 13 9 5 11 19 18 13 12 10 8 10 11 15 21 21 19 20 20 19 21 21 20 21 21 22 24 26 28 30 30 28 25 23 23 24 26 27 27 26 27 27 27 28 29 30 30 31 33 35 35 34 34 36 39 40 39 38 36 34 32 32 34 38 41 42 40 41 42 42 42 41 40 39 37 35 33 32 32 31
6 13 17 15 13 13 12 9 9 9 12 15 16 14 14 15 14 11 10 14 21 21 19 19 18 17 18 19 19 20 22 22 22 22 22 26 28 30 30 29 27 25 25 27 29 31 32 33 34 33 33 31 28 28 32 35 37 38 38 38 40 40 38 36 35 32 30 30 30 33 39 43 43 42 42 43 43 43 42 41 39 36 35 34 34 32
5 8 13 15 16 15 16 7 9 10 9 14 17 16 16 19 20 17 15 14 18 20 19 18 15 15 16 16 16 17 19 22 24 23 22 23 24 26 29 31 32 29 26 25 27 30 32 35 37 39 39 37 34 32 33 34 36 40 42 43 44 44 41 38 36 35 35 35 34 33 35 41 45 44 43 44 45 45 43 41 40 38 37 37 35 33
5 7 8 8 11 12 14 6 4 4 4 11 17 16 16 17 18 20 21 20 19 20 19 17 15 14 13 13 14 15 17 20 23 25 26 26 27 28 29 30 32 33 32 30 28 28 30 32 35 37 38 35 33 33 36 37 37 38 41 43 44 45 45 43 42 41 41 41 40 38 36 38 43 47 46 45 45 44 43 41 40 39 39 38 36 34
7 8 8 5 5 7 10 8 6 9 7 6 11 11 11 11 14 17 21 24 23 20 19 18 16 13 12 12 13 13 15 17 19 21 24 26 28 30 32 34 34 34 34 34 32 31 32 34 35 37 35 32 29 29 32 35 36 39 43 44 43 44 46 48 48 48 47 45 44 42 40 40 41 45 48 47 44 43 42 40 39 38 39 38 36 34
11 10 9 7 5 5 8 9 10 11 6 8 8 10 11 10 14 17 18 20 22 21 20 19 17 15 14 13 12 13 13 14 15 17 20 22 25 28 31 34 36 36 37 37 35 34 34 35 37 37 36 35 34 32 31 31 33 38 44 47 47 46 47 50 52 52 50 48 47 45 44 43 42 43 46 47 45 42 41 40 38 38 39 38 36 35
13 12 13 11 6 3 4 7 9 7 3 12 13 14 17 15 15 18 17 18 19 19 19 19 18 16 15 14 14 15 16 17 18 19 20 21 23 24 26 29 33 36 37 38 40 40 40 40 40 40 40 39 39 39 38 37 37 38 41 46 49 50 50 53 57 58 55 52 51 49 48 47 46 45 45 45 45 43 40 39 38 38 38 37 36 36
14 14 15 13 8 4 5 4 3 2 8 14 14 16 19 18 15 17 18 18 18 18 18 17 17 16 17 19 19 19 20 21 21 22 22 23 22 22 23 25 27 30 32 34 37 40 42 44 44 45 46 46 45 44 43 43 43 42 42 43 47 50 53 55 58 60 61 59 56 53 51 50 49 49 47 45 46 45 41 39 38 37 37 37 37 36
16 15 14 14 12 7 8 5 1 6 11 16 16 18 20 19 15 16 18 18 17 18 18 18 19 21 22 23 23 21 20 20 21 22 23 23 23 22 23 24 26 28 29 31 32 34 36 39 41 44 47 49 50 50 50 50 50 49 48 47 48 51 53 56 58 59 61 63 62 59 55 53 51 51 49 47 48 47 42 39 38 38 37 37 36 34
16 17 16 16 15 11 10 7 1 5 10 17 21 21 22 20 16 16 19 20 18 19 21 22 23 24 24 24 23 21 20 20 21 22 23 24 24 24 24 24 25 26 28 29 30 32 33 34 35 38 41 46 49 51 52 54 54 54 54 53 52 53 53 53 55 55 55 59 64 63 58 54 54 54 52 49 49 47 42 38 38 38 38 37 35 33
14 18 19 20 18 16 14 10 4 2 6 14 20 22 23 21 16 13 18 22 22 22 23 23 24 24 24 24 24 24 23 23 22 23 24 24 25 26 25 25 24 25 26 27 28 30 32 33 33 34 35 38 43 45 46 48 49 50 52 51 51 52 52 50 50 49 48 52 60 63 61 59 58 54 50 48 47 45 41 39 39 39 38 36 34 32
12 14 19 23 23 20 18 16 11 8 6 9 17 21 22 20 15 10 13 20 24 24 25 25 25 24 24 23 24 24 24 24 24 25 25 26 26 26 25 24 24 24 24 25 26 27 29 30 31 33 33 35 37 39 41 44 45 46 48 48 49 50 49 47 48 52 53 54 59 62 60 58 56 50 44 44 43 40 39 40 40 39 37 35 32 28
Wind_Direction
200 205 208 210 208 208 213 216 221 220 218 220 221 228 234 241 243 227 227 246 228 202 192 196 200 190 191 196 201 205 209 219 223 226 230 234 238 240 238 221 211 210 204 194 198 199 196 198 202 201 199 201 201 201 202 204 207 208 208 206 206 210 215 218 219 219 223 226 223 225 231 234 233 230 234 233 220 213 211 215 222 228 236 242 246 251
207 214 212 210 208 206 211 216 223 224 221 225 229 233 237 241 239 230 239 259 241 210 198 197 200 195 196 199 201 205 210 217 222 224 227 232 236 238 241 236 215 209 209 205 205 206 203 201 204 207 207 208 208 207 208 208 208 211 212 211 210 213 219 225 226 226 230 233 229 227 228 230 234 234 239 242 236 227 215 212 219 227 235 241 245 249
218 224 217 211 211 208 209 211 218 226 225 227 231 237 242 240 238 244 251 260 257 232 210 200 204 205 205 203 201 207 214 219 223 226 230 234 235 235 237 239 223 212 213 213 212 210 209 208 208 210 213 216 216 214 214 214 214 215 215 215 214 216 222 229 231 230 232 235 232 230 227 225 229 233 238 240 239 234 218 209 214 223 230 237 244 248
220 227 220 213 214 212 213 211 211 222 227 227 228 234 240 237 241 254 251 251 264 244 219 209 209 206 202 200 203 211 216 218 220 227 235 238 238 240 239 238 234 225 220 219 218 216 214 213 213 213 213 216 218 219 218 217 218 219 219 217 217 219 223 229 233 232 231 232 232 231 227 225 226 229 233 236 237 232 218 213 215 219 227 235 241 247
222 226 222 216 218 216 216 214 211 216 223 227 227 229 235 236 241 250 249 255 269 249 219 207 203 200 196 194 200 207 211 214 219 224 228 232 237 244 243 237 239 237 232 229 224 223 221 220 221 219 218 216 217 219 220 219 219 221 221 219 217 217 220 227 231 233 231 229 230 230 229 229 231 235 240 242 241 232 220 219 220 221 228 236 240 245
228 227 221 218 221 219 219 218 213 215 224 231 230 227 231 236 242 247 250 260 269 261 227 203 195 198 196 196 198 201 204 209 216 220 222 227 230 234 237 235 237 239 237 237 235 236 233 229 228 226 224 222 221 221 221 221 220 219 220 220 218 216 216 222 227 231 233 232 232 234 238 243 248 253 260 262 253 239 228 224 225 227 232 237 240 243
233 228 220 218 222 221 219 219 213 214 228 234 230 226 230 236 243 248 249 255 258 260 238 209 204 203 194 196 200 200 203 207 212 217 220 225 228 228 232 233 235 236 236 236 237 241 242 236 233 231 230 229 227 225 223 223 221 219 219 219 220 219 217 219 223 228 232 235 236 237 242 248 252 255 257 256 248 238 231 228 228 232 238 239 239 240
231 227 220 218 223 226 220 217 213 212 226 234 228 226 232 237 243 248 250 255 255 257 254 218 211 209 195 198 202 202 204 204 208 215 219 225 229 229 230 233 237 237 237 236 236 239 241 237 236 237 237 235 232 230 227 225 224 223 222 221 220 221 221 220 221 225 231 237 239 240 242 245 247 248 245 244 243 238 232 230 231 235 241 241 237 238
226 222 222 217 221 228 224 221 217 211 221 229 227 226 232 235 242 249 253 258 258 255 257 226 214 214 202 201 202 201 201 202 207 215 220 225 229 230 228 231 237 239 239 238 239 241 240 237 239 239 239 238 236 234 231 228 227 226 226 225 223 222 222 223 223 223 227 234 239 240 240 242 244 242 237 236 238 238 233 230 232 236 239 238 234 236
228 225 226 220 222 227 227 227 225 217 220 228 228 229 233 236 243 251 255 258 257 248 242 233 220 223 222 201 197 196 199 204 213 221 225 227 230 230 227 229 235 237 236 238 240 242 241 238 237 236 236 236 235 234 232 230 229 228 228 228 228 226 224 225 227 226 225 229 235 238 239 240 240 238 234 234 235 236 235 230 229 233 234 231 230 232
233 229 229 228 228 226 225 229 229 224 227 232 229 229 237 242 245 251 256 255 256 241 238 242 227 222 243 207 199 199 207 214 219 224 226 227 227 228 229 231 234 235 233 235 238 239 241 241 238 239 240 236 234 232 228 227 226 227 228 229 230 231 228 227 228 229 226 226 232 237 240 239 238 237 235 235 235 236 235 231 230 231 230 226 226 225
235 229 226 228 230 230 227 230 231 229 231 229 224 225 234 242 245 252 256 250 245 232 242 248 235 222 225 220 210 210 221 225 221 223 225 225 225 227 231 233 234 235 233 232 236 237 239 239 237 239 239 235 234 232 227 224 222 223 225 226 227 229 228 226 226 228 226 224 228 234 238 238 235 234 236 237 237 237 235 232 231 230 226 222 220 213
234 230 226 223 226 228 227 228 229 229 229 225 221 221 222 229 239 246 251 242 227 239 246 248 239 223 221 228 227 226 228 225 222 227 231 232 231 228 230 232 233 233 230 230 234 235 235 234 234 235 234 232 232 231 228 225 222 221 221 222 223 224 225 225 225 225 224 223 225 230 235 237 234 231 233 235 234 235 233 229 227 224 219 216 213 204
235 236 231 226 225 222 221 225 223 222 223 221 218 216 212 203 207 226 237 248 238 244 248 245 236 220 219 226 231 235 235 230 228 232 237 244 241 233 231 232 233 231 228 231 232 232 235 233 231 231 231 231 231 229 228 227 226 222 220 220 221 221 221 223 226 226 225 222 223 227 232 235 234 231 230 230 230 231 229 223 219 215 210 209 205 197
227 235 229 225 223 217 217 223 223 221 222 220 219 218 218 217 212 212 217 215 227 240 245 239 227 205 213 223 230 238 238 235 233 233 239 249 245 236 233 230 231 230 227 230 232 234 238 236 231 230 230 230 230 230 231 230 229 226 222 220 219 220 219 220 224 227 226 223 221 225 229 231 231 229 227 226 226 228 226 218 210 204 201 201 198 193
224 233 229 221 220 218 218 222 224 225 224 221 219 219 222 223 223 227 243 236 240 255 235 230 225 226 238 244 247 244 235 231 233 233 237 244 240 234 231 229 231 232 229 231 233 235 238 235 233 233 230 228 229 232 233 231 228 225 222 219 217 217 219 220 223 226 228 225 222 223 227 228 226 224 223 221 220 222 221 215 205 198 197 198 197 194
220 234 235 225 222 223 219 219 222 222 222 218 214 216 221 225 226 231 248 250 249 261 241 234 236 240 245 249 248 244 237 235 237 234 233 239 236 229 228 228 231 234 233 233 233 235 236 234 234 234 229 228 231 232 230 226 223 221 219 217 216 215 217 220 222 225 228 227 224 223 225 226 224 222 221 218 216 218 217 213 205 198 197 198 198 197
223 237 242 234 229 225 217 219 226 225 226 219 210 213 219 223 226 229 233 238 236 243 243 238 240 241 238 239 239 239 240 242 242 234 232 237 233 226 226 227 227 230 233 233 233 233 235 235 235 231 227 228 229 227 226 224 223 222 220 218 217 216 217 220 222 225 227 228 227 225 224 224 221 219 218 217 215 215 214 212 207 200 198 199 199 200
231 241 246 239 236 229 218 221 228 227 229 227 218 215 215 211 214 218 219 213 217 226 246 239 241 241 237 236 237 238 239 241 240 234 232 234 229 224 224 223 222 226 230 231 231 231 233 236 234 230 226 225 226 224 224 226 227 227 224 219 216 216 216 220 223 226 227 228 229 227 225 223 221 217 216 215 214 214 212 210 208 205 201 202 204 204
229 236 244 239 235 231 222 223 225 224 224 225 226 222 217 218 214 210 214 214 204 207 227 231 235 239 240 239 237 237 237 238 237 234 232 232 230 226 223 220 219 223 228 229 228 227 230 231 228 227 227 226 225 226 226 227 228 227 225 221 217 214 214 216 219 223 224 225 227 226 224 221 219 217 215 215 215 213 211 209 209 208 206 206 208 209
226 231 242 237 230 231 227 223 220 220 219 216 219 219 215 218 217 214 220 220 213 198 176 202 230 239 240 241 238 234 237 245 245 241 240 237 233 229 224 221 219 221 226 227 226 226 227 227 225 226 230 231 231 233 232 229 226 226 226 223 217 213 211 212 216 220 221 221 223 224 222 219 218 217 215 214 215 214 212 210 210 209 210 210 211 212
224 227 237 235 232 233 232 228 223 222 220 215 216 218 216 214 208 205 220 221 218 218 207 202 240 246 239 237 238 235 237 249 253 253 255 246 234 228 224 222 221 221 223 224 224 226 222 221 224 226 228 231 233 233 230 226 223 224 226 224 219 214 212 212 215 219 220 219 220 220 220 219 218 217 216 215 215 214 212 211 210 211 213 213 213 216
228 227 230 233 234 235 233 232 229 226 225 221 219 220 220 219 215 209 210 212 216 223 228 229 246 251 242 232 230 233 237 248 255 261 262 248 235 232 227 221 219 219 221 222 222 220 214 216 224 228 228 229 230 230 226 221 219 220 223 224 221 218 217 215 215 218 220 220 220 220 219 219 219 218 216 215 215 215 214 212 212 213 215 215 216 219
225 223 224 229 234 237 236 234 233 232 225 220 220 219 218 221 224 224 226 222 222 225 223 221 242 249 245 237 230 232 237 248 260 270 260 240 234 235 229 220 216 216 220 220 216 211 211 217 223 226 229 229 230 231 228 222 218 217 220 222 222 222 222 220 217 218 220 220 220 220 220 220 220 219 217 216 216 215 215 214 214 215 217 217 219 222
218 217 218 221 228 236 240 240 238 235 226 218 218 218 216 219 223 228 230 227 232 234 222 215 230 242 246 246 241 238 239 246 257 271 256 234 229 230 227 220 215 215 218 221 221 217 217 221 222 223 226 229 231 232 229 222 217 215 217 219 220 222 222 221 220 221 222 220 220 220 221 221 221 220 218 216 216 216 215 215 216 217 218 219 221 222
218 217 214 210 209 214 225 233 230 227 225 221 218 216 215 217 219 224 225 221 227 234 227 227 233 237 241 246 248 247 243 244 249 252 252 248 240 234 230 223 217 217 218 222 224 225 226 227 226 225 226 229 233 234 233 228 220 215 216 219 220 221 222 222 222 224 223 221 221 221 221 222 222 222 219 216 215 215 215 216 216 217 218 220 222 222
223 225 218 215 217 218 221 227 229 227 223 222 220 215 214 215 217 221 221 220 225 228 231 236 237 240 240 236 242 251 248 246 248 248 253 262 263 249 233 223 219 217 220 226 227 226 229 230 230 230 229 230 234 236 237 235 227 219 218 220 221 222 223 222 223 226 226 223 222 222 222 223 224 223 220 217 215 215 216 217 217 217 219 221 222 221
249 249 229 222 222 224 227 227 230 234 228 222 221 218 214 214 216 218 219 223 226 223 231 237 237 242 242 231 238 248 246 249 253 252 255 260 264 258 235 223 221 221 222 226 227 225 225 226 228 230 229 230 233 234 236 236 230 224 221 221 223 224 224 224 224 227 228 225 224 223 222 223 224 223 220 217 215 215 216 216 216 217 219 221 222 221
264 260 246 233 225 225 229 228 229 234 235 227 222 219 216 214 214 216 219 224 227 226 233 238 237 241 241 237 244 242 230 237 256 259 259 260 259 250 227 217 221 227 227 227 226 225 223 225 227 226 225 227 229 228 230 230 227 225 223 223 225 227 228 227 227 229 229 228 227 225 222 221 222 221 220 217 215 215 215 214 215 216 218 220 222 222
280 257 253 254 233 223 225 228 229 232 231 227 223 220 217 215 215 218 221 223 228 233 239 242 242 244 244 244 250 242 225 235 260 268 261 267 261 232 216 215 223 227 226 224 225 226 225 226 229 225 220 221 223 224 224 225 224 223 222 223 225 228 230 230 230 231 232 231 231 228 222 219 221 220 219 217 216 216 216 215 214 215 217 219 220 222
299 269 255 270 247 224 220 224 227 230 229 226 224 223 221 217 216 218 220 222 225 231 238 241 243 245 245 246 250 248 243 246 257 263 259 262 257 226 216 222 228 227 226 225 227 232 233 232 229 222 217 216 218 220 220 221 222 221 222 223 224 226 229 230 230 231 233 234 233 230 223 219 219 219 219 218 217 217 217 216 216 216 217 218 219 220
299 300 281 301 289 235 219 218 222 227 228 226 223 221 219 217 216 216 217 219 221 225 231 236 240 243 242 243 246 246 248 251 254 260 259 253 255 240 220 220 222 222 225 228 230 234 234 233 228 217 212 211 213 217 218 219 221 223 225 226 225 225 227 229 229 229 232 234 234 230 224 220 219 220 220 219 218 217 217 218 218 219 218 218 219 221
290 310 305 319 329 269 224 215 217 220 224 229 227 221 216 215 217 220 219 217 217 220 225 231 238 242 239 239 241 241 245 251 255 262 263 256 257 254 229 218 217 218 224 230 234 235 232 231 227 215 210 211 213 217 218 219 221 225 229 232 231 229 227 227 227 228 229 232 234 232 226 220 219 220 221 220 218 217 217 218 219 219 220 220 220 223
284 299 304 306 313 293 231 209 209 213 215 227 230 226 223 222 221 225 225 220 218 221 226 232 238 242 239 237 237 238 241 249 255 258 257 248 247 246 234 228 227 227 232 234 235 239 240 231 220 212 211 213 215 221 227 229 229 229 233 237 239 237 232 228 226 226 227 229 233 233 229 222 219 220 221 221 220 217 217 218 219 220 221 222 223 224
285 288 297 295 290 294 230 193 191 208 216 220 230 231 229 228 228 232 234 227 222 223 226 231 234 237 239 238 237 235 237 244 248 249 246 239 237 242 246 243 238 234 234 237 237 239 241 234 223 216 214 214 218 230 242 243 239 235 236 240 243 243 239 233 228 226 225 227 230 233 230 225 221 220 221 221 220 219 218 218 220 221 222 223 224 226
282 282 287 286 286 293 241 195 179 204 211 213 226 234 233 232 227 225 222 224 230 229 225 228 231 232 236 239 235 230 230 236 241 245 247 245 239 236 235 235 238 238 237 240 242 238 234 232 232 229 225 226 232 241 244 241 239 239 240 243 244 244 242 237 230 226 224 224 227 230 231 228 223 220 221 221 220 220 219 219 220 221 222 223 225 226
269 266 269 274 279 281 255 216 182 175 195 197 202 222 226 227 224 221 215 217 233 237 231 230 231 229 234 239 233 225 223 226 230 235 240 237 228 224 218 206 208 219 225 232 238 235 230 231 235 236 238 242 246 248 245 240 240 243 246 247 246 244 242 239 233 229 226 224 225 227 228 228 225 222 221 222 221 220 221 221 222 222 223 224 225 226
260 254 252 259 269 276 266 226 176 156 184 185 173 177 205 213 219 222 216 201 210 226 228 231 233 230 230 233 228 223 221 222 225 230 233 229 219 217 215 205 198 198 204 212 219 222 223 227 233 238 242 246 248 250 250 248 247 249 250 247 244 242 241 240 236 233 230 228 227 226 226 226 225 223 223 223 222 221 222 223 223 223 224 225 226 228
252 246 239 245 259 270 267 234 192 172 184 189 191 192 204 205 187 201 197 173 173 198 208 213 222 224 223 225 226 225 225 225 227 228 228 229 229 227 223 219 216 216 215 215 214 215 218 223 228 233 238 241 244 248 251 250 250 252 251 245 239 238 239 240 239 239 237 235 233 230 227 224 223 223 223 224 223 222 223 224 226 226 226 228 229 229
230 222 220 234 259 272 264 233 195 138 150 178 195 202 208 224 215 192 178 164 175 188 192 197 205 209 213 220 225 229 233 234 233 228 224 226 230 232 233 230 228 229 230 229 226 225 228 233 235 236 238 239 241 245 249 249 249 253 254 246 238 235 237 240 242 243 242 241 238 235 231 226 222 221 222 223 224 223 223 225 227 228 228 229 230 231
189 194 205 232 270 296 290 242 177 125 121 151 171 182 200 224 229 216 199 186 189 193 194 197 201 202 208 217 221 226 233 238 238 235 230 228 230 234 239 240 239 236 234 234 236 237 240 244 246 246 246 245 241 241 245 248 250 253 254 248 241 239 241 244 245 247 248 249 248 245 239 232 226 222 220 221 222 222 222 223 225 228 230 231 232 233
74 152 189 227 258 291 310 279 167 125 115 146 157 164 187 213 227 230 225 211 204 207 207 205 204 205 211 218 219 222 227 233 239 242 240 238 238 240 243 246 248 247 243 240 241 242 245 248 250 252 253 251 246 240 239 246 251 253 254 253 249 245 245 247 249 251 254 255 255 256 252 241 233 226 221 219 220 221 221 222 223 226 228 231 233 234
78 106 149 207 248 287 321 326 143 95 87 146 155 160 178 203 223 231 231 225 214 213 218 221 219 214 215 221 225 227 226 226 232 238 241 243 246 247 249 250 249 249 248 245 243 244 246 248 249 251 251 249 244 238 236 242 248 250 253 256 256 253 250 251 253 256 257 256 255 255 255 248 240 234 227 220 218 219 219 220 222 223 225 229 231 232
136 124 135 165 230 288 332 354 356 345 5 112 150 166 177 206 227 228 228 227 219 212 216 223 226 225 224 225 228 232 232 229 230 233 237 241 243 245 249 251 251 250 247 245 245 245 246 247 247 248 246 241 238 238 241 244 247 249 250 252 255 255 254 253 255 256 256 256 255 253 251 248 245 241 235 227 219 216 218 218 219 221 223 225 227 230
158 155 162 177 215 276 329 354 351 345 24 107 152 178 171 191 223 226 223 222 217 213 214 218 222 225 228 231 234 237 242 245 247 246 245 245 246 247 247 249 252 253 250 248 247 247 246 247 247 248 247 243 241 244 249 252 252 251 250 249 248 249 250 252 253 254 254 253 252 250 248 247 246 246 243 235 223 216 216 217 217 218 220 222 225 227
164 164 175 188 210 266 338 358 349 331 133 136 154 179 174 174 200 214 214 213 213 212 213 214 216 221 231 243 252 258 263 264 262 262 261 259 257 256 254 252 253 255 254 253 252 252 253 254 254 253 253 252 250 250 253 256 256 255 254 252 247 245 246 248 248 249 251 252 248 244 243 244 245 246 246 239 227 219 217 218 218 218 219 220 223 223
180 173 177 187 206 262 307 330 351 249 180 161 163 180 177 170 183 201 204 205 207 208 209 212 220 232 245 254 261 266 269 269 268 266 265 263 262 261 260 259 259 259 260 259 258 258 258 260 260 259 258 257 256 255 256 258 259 259 259 257 253 249 250 251 249 246 246 246 244 240 238 240 242 244 244 238 227 219 217 217 218 218 218 218 219 218
197 190 190 195 205 245 291 294 164 156 174 179 188 193 182 172 182 204 209 207 208 212 219 229 237 244 250 256 261 266 269 270 269 267 264 263 264 264 265 266 266 266 265 264 263 263 263 264 264 263 261 260 260 259 259 260 262 263 262 261 259 256 256 258 258 253 247 244 241 236 232 234 238 241 241 235 224 217 215 216 216 216 214 213 213 213
202 207 211 208 209 232 272 285 222 158 174 180 184 186 179 171 174 195 211 217 218 220 229 237 243 246 251 256 260 265 270 272 270 268 268 268 268 270 272 272 272 272 271 269 267 266 267 268 269 267 266 265 264 263 263 264 265 266 265 264 264 264 263 264 262 256 248 243 240 236 230 229 232 236 235 228 219 213 213 214 212 210 207 207 207 210
191 210 217 218 221 238 261 275 277 229 196 182 177 174 171 170 172 186 209 221 225 227 231 235 241 248 255 260 263 267 273 275 274 273 273 274 275 276 277 278 278 277 275 272 269 267 266 266 268 268 268 268 268 267 268 270 271 271 270 269 268 268 268 269 266 258 249 241 239 236 232 228 228 229 227 221 215 211 208 206 204 202 201 203 207 213
168 197 214 224 232 239 250 262 273 283 268 213 191 180 168 163 164 178 207 218 223 228 232 235 242 249 253 258 263 269 274 278 279 280 280 281 282 281 280 282 283 280 275 271 268 266 264 264 265 267 268 270 271 270 270 270 270 270 270 268 266 264 263 264 263 260 259 254 245 236 231 228 226 223 218 215 213 208 201 197 196 197 199 204 209 214
Height
3133 3132 3130 3128 3130 3134 3137 3139 3141 3144 3146 3146 3147 3147 3146 3145 3144 3146 3147 3149 3152 3149 3147 3148 3149 3149 3150 3151 3152 3155 3157 3159 3160 3161 3162 3164 3166 3168 3169 3170 3171 3172 3174 3175 3176 3178 3179 3180 3181 3183 3184 3186 3187 3189 3190 3191 3192 3194 3195 3196 3197 3198 3199 3200 3201 3202 3202 3203 3204 3205 3206 3207 3207 3208 3208 3209 3209 3210 3211 3211 3211 3211 3212 3212 3212 3212
3130 3126 3123 3126 3130 3134 3136 3139 3141 3143 3144 3145 3145 3145 3145 3144 3142 3142 3145 3148 3152 3151 3147 3147 3148 3148 3148 3149 3149 3152 3154 3156 3157 3158 3159 3161 3163 3165 3167 3169 3170 3171 3172 3173 3174 3176 3177 3178 3180 3181 3182 3183 3185 3187 3188 3190 3191 3192 3193 3194 3196 3197 3198 3198 3200 3201 3201 3202 3203 3204 3205 3206 3206 3207 3207 3207 3208 3208 3209 3210 3210 3210 3211 3211 3211 3212
3124 3120 3121 3127 3131 3134 3135 3138 3140 3141 3143 3143 3143 3144 3142 3140 3140 3141 3143 3146 3150 3150 3147 3147 3147 3147 3147 3148 3148 3148 3150 3152 3154 3155 3157 3159 3160 3162 3164 3166 3167 3169 3170 3171 3172 3173 3175 3176 3177 3178 3180 3182 3183 3185 3186 3188 3189 3190 3191 3193 3194 3195 3196 3197 3198 3199 3200 3201 3202 3203 3204 3204 3205 3205 3206 3206 3206 3207 3207 3209 3209 3209 3210 3210 3210 3211
3118 3116 3121 3127 3130 3132 3133 3135 3137 3139 3140 3140 3140 3141 3138 3136 3140 3140 3140 3144 3147 3146 3145 3144 3145 3146 3146 3148 3148 3147 3148 3150 3152 3153 3155 3156 3157 3159 3161 3163 3164 3166 3167 3169 3170 3171 3172 3174 3174 3175 3177 3179 3181 3183 3184 3185 3186 3188 3189 3191 3192 3194 3194 3195 3196 3197 3199 3200 3200 3201 3202 3203 3203 3203 3204 3204 3204 3205 3206 3207 3208 3208 3209 3209 3210 3211
3115 3117 3122 3126 3127 3129 3131 3132 3135 3135 3136 3136 3137 3138 3134 3133 3138 3138 3138 3142 3144 3143 3143 3143 3144 3145 3145 3146 3146 3147 3148 3149 3150 3151 3152 3153 3154 3156 3158 3160 3161 3163 3165 3166 3167 3168 3169 3171 3171 3172 3174 3176 3178 3180 3181 3183 3184 3186 3187 3189 3190 3192 3193 3194 3194 3195 3197 3197 3198 3199 3199 3200 3200 3201 3201 3202 3203 3204 3205 3206 3207 3207 3208 3208 3209 3210
3115 3118 3122 3124 3124 3126 3127 3128 3130 3131 3133 3133 3133 3134 3133 3132 3135 3137 3138 3141 3142 3142 3143 3143 3144 3144 3143 3143 3143 3145 3146 3147 3148 3148 3149 3150 3152 3154 3155 3156 3158 3160 3162 3164 3165 3166 3167 3168 3169 3170 3172 3173 3175 3177 3179 3181 3183 3184 3185 3187 3188 3189 3191 3192 3192 3193 3194 3195 3196 3196 3197 3197 3198 3199 3200 3201 3202 3203 3204 3205 3205 3206 3206 3207 3208 3209
3112 3116 3119 3120 3122 3123 3124 3124 3126 3129 3131 3129 3128 3132 3133 3132 3133 3134 3136 3140 3141 3140 3141 3141 3141 3141 3141 3141 3141 3142 3143 3144 3146 3146 3146 3147 3149 3150 3151 3153 3154 3156 3158 3160 3162 3163 3164 3165 3167 3168 3169 3170 3172 3174 3177 3179 3180 3182 3183 3184 3186 3187 3189 3190 3191 3191 3192 3193 3194 3195 3195 3196 3197 3198 3199 3200 3201 3201 3202 3203 3204 3204 3205 3206 3207 3208
3108 3113 3116 3117 3119 3119 3119 3120 3122 3126 3127 3123 3125 3131 3132 3131 3131 3131 3134 3137 3138 3139 3139 3139 3138 3137 3136 3136 3138 3139 3140 3142 3143 3143 3144 3144 3145 3146 3147 3149 3151 3153 3155 3157 3159 3161 3162 3163 3164 3165 3166 3167 3169 3172 3174 3175 3177 3178 3180 3182 3183 3185 3186 3187 3189 3189 3190 3190 3191 3193 3194 3194 3195 3197 3198 3199 3199 3200 3200 3201 3202 3203 3203 3204 3205 3206
3106 3110 3110 3113 3115 3114 3114 3117 3120 3123 3123 3120 3125 3130 3130 3131 3130 3130 3132 3133 3135 3137 3135 3136 3137 3134 3130 3131 3134 3136 3137 3139 3139 3140 3140 3140 3141 3142 3144 3145 3147 3150 3152 3154 3156 3158 3159 3161 3162 3163 3164 3166 3167 3169 3170 3172 3174 3176 3177 3179 3180 3181 3183 3184 3186 3187 3188 3188 3189 3191 3192 3193 3194 3195 3196 3197 3197 3197 3198 3199 3201 3201 3202 3203 3204 3205
3105 3106 3108 3111 3111 3110 3112 3116 3119 3120 3120 3120 3125 3128 3129 3129 3129 3129 3130 3130 3132 3131 3128 3131 3134 3132 3128 3127 3131 3133 3134 3135 3135 3136 3136 3136 3137 3138 3140 3142 3144 3146 3149 3151 3153 3155 3157 3158 3159 3161 3162 3164 3164 3166 3167 3169 3171 3172 3174 3175 3176 3177 3179 3181 3183 3184 3185 3186 3187 3188 3189 3191 3192 3193 3194 3194 3195 3195 3196 3197 3199 3200 3201 3202 3203 3204
3103 3106 3108 3108 3108 3109 3112 3114 3116 3118 3119 3121 3124 3126 3127 3127 3127 3127 3127 3127 3128 3124 3122 3125 3129 3130 3127 3124 3124 3125 3127 3129 3130 3132 3133 3134 3134 3135 3136 3138 3140 3143 3145 3147 3150 3152 3154 3156 3157 3159 3160 3161 3162 3163 3164 3166 3167 3168 3170 3171 3173 3174 3176 3178 3179 3181 3182 3184 3184 3185 3187 3189 3190 3191 3191 3192 3192 3193 3194 3196 3197 3198 3200 3201 3202 3203
3101 3103 3103 3104 3106 3109 3111 3112 3113 3116 3118 3119 3121 3123 3125 3124 3124 3124 3123 3124 3122 3117 3117 3120 3123 3125 3121 3119 3120 3120 3121 3123 3125 3127 3128 3129 3130 3131 3133 3135 3137 3139 3141 3144 3146 3149 3151 3153 3154 3156 3157 3158 3159 3160 3161 3162 3163 3165 3166 3168 3169 3171 3172 3174 3176 3177 3179 3180 3182 3183 3184 3186 3188 3189 3189 3189 3190 3191 3192 3194 3196 3197 3198 3199 3200 3201
3096 3097 3099 3101 3103 3105 3107 3108 3110 3112 3113 3115 3117 3120 3121 3121 3122 3120 3117 3117 3115 3112 3114 3117 3119 3117 3112 3114 3118 3118 3119 3120 3121 3123 3125 3125 3126 3127 3129 3131 3133 3135 3137 3140 3143 3145 3148 3150 3151 3152 3153 3155 3156 3156 3158 3159 3160 3162 3163 3164 3166 3167 3169 3171 3172 3174 3175 3177 3179 3180 3182 3183 3185 3186 3187 3187 3188 3189 3191 3192 3194 3195 3196 3197 3199 3200
3093 3094 3096 3098 3098 3099 3101 3102 3103 3105 3107 3109 3110 3112 3114 3115 3117 3116 3113 3112 3110 3109 3111 3114 3115 3110 3107 3110 3114 3115 3116 3117 3119 3121 3122 3122 3123 3125 3126 3127 3129 3132 3134 3136 3139 3142 3144 3146 3147 3149 3150 3152 3153 3154 3155 3156 3158 3159 3160 3162 3163 3165 3166 3168 3169 3171 3172 3174 3176 3178 3179 3181 3182 3183 3184 3185 3186 3187 3189 3191 3192 3194 3195 3196 3197 3199
3089 3088 3087 3090 3090 3092 3095 3096 3099 3102 3104 3105 3107 3109 3108 3106 3108 3109 3109 3109 3109 3108 3109 3111 3109 3105 3104 3106 3109 3112 3113 3114 3116 3118 3119 3119 3121 3123 3125 3126 3127 3129 3131 3134 3136 3138 3140 3142 3144 3146 3147 3149 3150 3152 3153 3154 3155 3156 3158 3159 3160 3162 3163 3165 3166 3168 3169 3171 3173 3175 3177 3178 3179 3181 3182 3183 3185 3186 3187 3189 3191 3192 3194 3195 3196 3197
3085 3081 3080 3085 3087 3089 3091 3093 3097 3100 3100 3102 3105 3105 3100 3099 3104 3107 3107 3107 3108 3107 3106 3105 3102 3101 3103 3104 3106 3109 3109 3110 3113 3114 3116 3117 3119 3122 3124 3124 3125 3126 3128 3130 3132 3135 3137 3139 3141 3142 3144 3146 3148 3149 3150 3151 3152 3154 3155 3157 3158 3160 3161 3162 3164 3165 3167 3169 3170 3172 3174 3175 3177 3178 3179 3181 3182 3184 3185 3187 3189 3191 3192 3193 3194 3196
3080 3076 3077 3084 3085 3086 3088 3090 3094 3095 3095 3097 3098 3095 3094 3099 3105 3106 3105 3105 3106 3105 3101 3099 3099 3099 3101 3101 3103 3105 3106 3108 3109 3109 3111 3114 3116 3119 3120 3121 3123 3123 3124 3126 3128 3131 3133 3136 3138 3139 3141 3143 3144 3146 3147 3148 3150 3151 3153 3155 3156 3158 3159 3160 3161 3163 3165 3167 3168 3169 3171 3173 3174 3175 3177 3179 3180 3182 3183 3185 3187 3189 3190 3191 3193 3194
3077 3075 3075 3080 3081 3082 3086 3088 3090 3090 3091 3091 3090 3091 3096 3101 3103 3103 3103 3103 3104 3102 3098 3096 3096 3097 3098 3098 3099 3102 3103 3105 3106 3107 3108 3110 3113 3116 3117 3119 3119 3119 3121 3123 3125 3128 3130 3132 3134 3136 3138 3139 3141 3143 3144 3146 3148 3150 3151 3153 3154 3155 3156 3158 3159 3161 3163 3164 3165 3166 3168 3170 3171 3173 3175 3177 3178 3180 3181 3183 3185 3187 3188 3190 3191 3192
3076 3074 3073 3076 3077 3079 3084 3086 3084 3085 3088 3088 3088 3091 3095 3095 3095 3096 3097 3097 3098 3099 3096 3093 3093 3093 3093 3094 3096 3099 3100 3101 3103 3104 3105 3107 3110 3113 3114 3115 3115 3116 3118 3120 3123 3125 3127 3129 3131 3133 3135 3136 3138 3140 3142 3144 3146 3147 3149 3151 3152 3153 3155 3157 3158 3159 3161 3162 3163 3164 3166 3167 3169 3171 3172 3174 3176 3177 3179 3181 3183 3185 3186 3188 3189 3190
3074 3072 3070 3072 3074 3077 3079 3078 3076 3078 3082 3085 3087 3088 3089 3088 3089 3090 3090 3090 3092 3094 3093 3092 3090 3087 3087 3091 3094 3096 3097 3098 3099 3100 3102 3103 3105 3108 3109 3110 3112 3114 3115 3117 3119 3122 3124 3126 3128 3130 3132 3134 3136 3138 3139 3141 3143 3145 3147 3148 3150 3151 3153 3154 3155 3156 3157 3159 3160 3162 3163 3165 3166 3168 3169 3171 3173 3174 3177 3179 3181 3183 3184 3186 3187 3188
3071 3069 3067 3069 3072 3071 3069 3068 3069 3072 3076 3078 3079 3080 3081 3083 3084 3086 3086 3085 3087 3089 3090 3090 3087 3081 3083 3088 3092 3094 3095 3096 3096 3097 3098 3100 3101 3103 3105 3106 3109 3110 3111 3113 3116 3119 3122 3123 3125 3127 3129 3132 3134 3135 3137 3138 3140 3142 3144 3146 3147 3149 3150 3151 3152 3153 3155 3156 3158 3159 3160 3162 3163 3165 3167 3169 3170 3172 3174 3176 3178 3180 3182 3184 3185 3186
3065 3065 3064 3065 3065 3062 3062 3065 3068 3070 3072 3073 3072 3073 3076 3079 3080 3081 3081 3080 3082 3084 3084 3086 3083 3078 3081 3086 3089 3091 3093 3093 3094 3095 3095 3096 3098 3100 3101 3103 3106 3107 3108 3110 3113 3116 3119 3120 3122 3124 3127 3129 3131 3132 3133 3135 3137 3139 3141 3143 3145 3146 3147 3149 3150 3151 3153 3154 3155 3156 3158 3160 3161 3162 3164 3166 3167 3169 3171 3173 3175 3178 3179 3181 3183 3184
3060 3061 3059 3059 3059 3059 3060 3064 3066 3067 3069 3071 3070 3071 3075 3076 3076 3076 3077 3078 3080 3079 3080 3083 3079 3073 3077 3084 3086 3088 3090 3090 3092 3092 3091 3093 3095 3096 3098 3100 3103 3105 3107 3109 3112 3114 3116 3117 3119 3121 3124 3126 3127 3128 3130 3131 3134 3136 3138 3140 3142 3143 3144 3146 3148 3149 3151 3152 3153 3154 3156 3157 3158 3160 3161 3163 3164 3166 3168 3170 3173 3175 3176 3179 3180 3181
3055 3054 3053 3054 3056 3057 3058 3060 3062 3063 3065 3065 3065 3068 3071 3071 3072 3074 3075 3076 3076 3075 3077 3080 3075 3068 3072 3081 3085 3085 3086 3087 3088 3089 3088 3089 3091 3093 3094 3097 3100 3102 3104 3107 3109 3111 3113 3114 3116 3118 3121 3123 3124 3125 3126 3128 3131 3133 3135 3137 3138 3140 3142 3144 3145 3147 3148 3149 3150 3152 3153 3154 3156 3157 3158 3160 3162 3164 3166 3168 3170 3172 3174 3176 3177 3178
3048 3046 3048 3051 3053 3053 3053 3053 3054 3056 3058 3057 3057 3061 3064 3067 3070 3071 3072 3074 3072 3071 3074 3075 3070 3067 3072 3079 3082 3083 3082 3082 3085 3086 3086 3087 3089 3090 3091 3093 3096 3098 3101 3104 3106 3108 3110 3111 3113 3115 3117 3119 3121 3122 3124 3125 3128 3130 3132 3133 3135 3137 3139 3141 3143 3144 3145 3147 3148 3149 3150 3151 3153 3154 3155 3157 3159 3161 3163 3164 3166 3169 3171 3173 3174 3175
3039 3038 3039 3041 3042 3043 3043 3041 3043 3047 3050 3051 3052 3055 3058 3062 3065 3066 3068 3070 3066 3066 3071 3069 3066 3069 3073 3076 3078 3080 3079 3078 3081 3084 3084 3085 3087 3089 3089 3090 3093 3096 3099 3101 3102 3104 3106 3108 3110 3113 3114 3116 3118 3119 3121 3123 3125 3127 3129 3130 3132 3134 3136 3138 3140 3141 3142 3144 3145 3146 3147 3149 3150 3151 3153 3155 3156 3158 3159 3161 3163 3166 3168 3169 3171 3172
3033 3032 3030 3029 3029 3032 3034 3037 3040 3044 3047 3048 3049 3051 3053 3057 3060 3062 3063 3061 3060 3065 3067 3064 3066 3070 3071 3072 3075 3077 3076 3076 3078 3081 3082 3082 3084 3086 3086 3087 3090 3093 3095 3097 3099 3101 3104 3106 3107 3109 3111 3113 3115 3117 3118 3120 3122 3124 3125 3127 3128 3130 3132 3135 3136 3138 3139 3140 3142 3143 3144 3146 3147 3149 3151 3152 3153 3155 3156 3158 3160 3162 3164 3166 3168 3169
3030 3027 3025 3025 3025 3027 3032 3037 3040 3041 3043 3044 3046 3048 3050 3052 3055 3056 3056 3055 3059 3063 3061 3060 3066 3068 3068 3071 3073 3074 3075 3075 3076 3079 3079 3079 3081 3082 3082 3085 3089 3091 3092 3094 3096 3099 3101 3103 3105 3107 3108 3111 3113 3114 3116 3117 3119 3121 3122 3124 3125 3127 3129 3131 3133 3134 3135 3137 3138 3140 3141 3143 3144 3146 3148 3150 3151 3152 3153 3155 3157 3159 3161 3163 3164 3166
3026 3023 3023 3024 3023 3025 3029 3033 3036 3037 3039 3041 3043 3044 3045 3048 3049 3050 3050 3053 3057 3057 3055 3059 3064 3064 3065 3070 3071 3071 3074 3074 3075 3076 3076 3076 3078 3078 3080 3083 3087 3088 3089 3092 3094 3096 3098 3100 3102 3104 3106 3108 3110 3111 3113 3114 3116 3117 3119 3121 3122 3124 3126 3128 3129 3131 3132 3133 3135 3136 3138 3140 3142 3143 3145 3146 3147 3148 3150 3152 3153 3156 3157 3159 3161 3163
3023 3020 3022 3022 3020 3021 3024 3028 3031 3033 3035 3037 3039 3040 3041 3043 3045 3046 3048 3051 3053 3053 3055 3060 3061 3061 3064 3068 3068 3070 3072 3071 3072 3073 3073 3074 3075 3075 3078 3080 3082 3084 3086 3089 3091 3093 3095 3097 3099 3101 3102 3105 3107 3109 3110 3112 3113 3114 3115 3117 3119 3120 3122 3124 3126 3127 3128 3130 3132 3133 3135 3137 3138 3140 3141 3143 3144 3145 3146 3148 3150 3152 3154 3155 3158 3159
3021 3018 3018 3019 3017 3017 3019 3023 3027 3029 3030 3033 3035 3037 3038 3040 3041 3043 3046 3048 3050 3051 3054 3057 3057 3057 3062 3065 3066 3068 3068 3068 3068 3070 3071 3073 3073 3074 3076 3078 3080 3082 3085 3087 3089 3090 3092 3094 3096 3098 3100 3102 3105 3106 3108 3109 3110 3111 3112 3114 3115 3117 3119 3120 3122 3123 3125 3126 3129 3130 3132 3134 3135 3136 3137 3139 3140 3142 3143 3145 3147 3149 3150 3152 3154 3156
3019 3017 3015 3016 3014 3012 3014 3018 3021 3025 3028 3029 3029 3030 3033 3035 3037 3039 3041 3044 3047 3049 3051 3052 3051 3053 3058 3062 3062 3062 3064 3064 3065 3067 3069 3071 3071 3073 3075 3077 3078 3081 3084 3086 3087 3088 3089 3091 3093 3095 3097 3100 3102 3104 3105 3106 3107 3108 3109 3111 3112 3114 3115 3116 3118 3119 3121 3123 3125 3126 3129 3131 3132 3133 3134 3135 3137 3138 3140 3142 3144 3145 3147 3149 3151 3153
3018 3016 3015 3016 3014 3010 3011 3014 3018 3023 3025 3020 3018 3023 3029 3032 3034 3036 3038 3041 3044 3046 3047 3047 3047 3050 3054 3056 3056 3058 3060 3061 3062 3065 3067 3069 3070 3071 3073 3075 3076 3078 3080 3083 3084 3085 3086 3088 3091 3093 3095 3098 3100 3101 3103 3104 3104 3105 3107 3108 3109 3110 3111 3112 3113 3115 3117 3119 3120 3122 3125 3127 3128 3129 3130 3131 3133 3135 3137 3139 3140 3141 3143 3145 3148 3150
3016 3016 3016 3018 3016 3010 3008 3010 3015 3019 3016 3010 3012 3020 3026 3028 3031 3034 3036 3038 3041 3043 3043 3043 3045 3047 3049 3050 3052 3055 3059 3060 3060 3062 3065 3066 3068 3069 3071 3073 3074 3075 3076 3079 3082 3084 3085 3087 3089 3091 3093 3095 3097 3099 3100 3101 3102 3103 3104 3105 3106 3107 3107 3108 3109 3111 3113 3115 3116 3118 3121 3123 3124 3126 3127 3128 3130 3132 3134 3135 3136 3138 3140 3142 3144 3146
3013 3014 3015 3016 3015 3011 3007 3008 3009 3008 3006 3007 3013 3018 3021 3024 3029 3033 3034 3036 3038 3040 3040 3041 3042 3043 3045 3046 3049 3054 3057 3057 3057 3058 3061 3063 3065 3066 3068 3069 3071 3073 3073 3075 3078 3081 3083 3085 3087 3089 3091 3092 3094 3096 3097 3097 3098 3100 3101 3101 3102 3103 3104 3105 3105 3106 3108 3110 3112 3114 3116 3118 3120 3122 3123 3125 3127 3128 3130 3131 3133 3135 3137 3139 3140 3142
3010 3012 3012 3011 3010 3010 3007 3004 3002 3001 3003 3008 3012 3014 3016 3021 3025 3028 3029 3031 3034 3035 3036 3037 3038 3040 3042 3044 3046 3051 3053 3053 3054 3055 3057 3059 3061 3063 3064 3066 3068 3070 3071 3072 3074 3076 3079 3082 3084 3086 3088 3089 3090 3092 3092 3093 3094 3095 3096 3097 3098 3099 3100 3101 3102 3103 3104 3106 3108 3110 3111 3114 3116 3118 3119 3121 3123 3124 3126 3128 3129 3132 3133 3135 3137 3139
3007 3008 3009 3007 3006 3008 3007 3002 2999 3000 3003 3007 3010 3011 3013 3015 3018 3021 3024 3027 3029 3031 3033 3034 3035 3038 3039 3041 3043 3047 3049 3050 3052 3053 3053 3055 3057 3059 3061 3062 3064 3066 3068 3070 3071 3073 3076 3078 3080 3083 3084 3085 3086 3087 3088 3089 3090 3091 3092 3093 3094 3095 3096 3097 3098 3099 3100 3101 3103 3105 3107 3109 3112 3114 3116 3117 3119 3120 3122 3124 3126 3128 3130 3132 3133 3135
3003 3003 3006 3005 3002 3004 3006 3003 2999 2998 3000 3003 3006 3008 3009 3011 3014 3017 3021 3024 3026 3028 3029 3031 3032 3034 3037 3039 3041 3044 3046 3048 3050 3051 3051 3053 3054 3056 3058 3060 3061 3062 3064 3066 3068 3071 3073 3075 3077 3079 3081 3082 3083 3084 3085 3086 3087 3087 3088 3089 3090 3091 3092 3093 3094 3096 3097 3098 3100 3101 3103 3105 3108 3110 3112 3113 3115 3117 3119 3121 3123 3125 3126 3128 3130 3132
3000 2999 3002 3003 3001 3002 3003 3000 2996 2995 2997 3000 3004 3006 3008 3010 3012 3015 3018 3021 3023 3025 3026 3027 3029 3031 3034 3037 3039 3041 3043 3045 3046 3048 3050 3051 3053 3054 3056 3058 3060 3061 3062 3063 3065 3067 3069 3072 3074 3076 3077 3078 3079 3080 3082 3083 3084 3084 3085 3086 3087 3087 3088 3089 3090 3092 3094 3096 3097 3098 3099 3101 3103 3106 3108 3110 3112 3114 3115 3117 3119 3121 3123 3125 3127 3129
2997 2996 2998 3000 3001 3001 3000 2996 2993 2993 2995 2998 3000 3003 3006 3008 3011 3014 3016 3018 3020 3022 3023 3025 3027 3030 3033 3035 3037 3039 3041 3042 3044 3045 3047 3049 3051 3052 3053 3055 3057 3058 3060 3061 3062 3063 3065 3066 3068 3070 3072 3073 3075 3077 3078 3079 3080 3081 3082 3083 3083 3083 3084 3085 3088 3090 3091 3093 3094 3094 3095 3097 3099 3101 3104 3106 3108 3110 3112 3113 3115 3117 3120 3121 3123 3124
2993 2993 2995 2998 2999 2998 2996 2994 2992 2991 2991 2992 2994 2998 3002 3006 3008 3010 3012 3015 3017 3019 3020 3023 3026 3029 3031 3033 3035 3037 3038 3040 3041 3043 3045 3046 3048 3049 3050 3051 3052 3054 3056 3057 3058 3060 3061 3062 3063 3065 3066 3068 3071 3073 3074 3075 3076 3076 3078 3079 3079 3079 3081 3083 3085 3087 3088 3089 3090 3091 3091 3093 3094 3096 3098 3101 3103 3105 3107 3109 3111 3114 3116 3117 3119 3121
2990 2991 2994 2998 2999 2997 2995 2991 2989 2988 2989 2990 2992 2996 3000 3003 3004 3006 3009 3013 3014 3016 3018 3021 3024 3027 3029 3031 3033 3034 3035 3037 3039 3040 3042 3044 3045 3046 3047 3048 3049 3050 3051 3052 3053 3055 3057 3058 3060 3060 3062 3063 3065 3067 3068 3070 3071 3072 3073 3074 3074 3076 3079 3080 3081 3083 3083 3084 3085 3086 3087 3087 3089 3090 3092 3095 3097 3100 3103 3105 3108 3110 3112 3114 3116 3118
2990 2991 2994 2998 3000 3000 2997 2991 2989 2989 2989 2989 2992 2995 2999 3001 3002 3004 3008 3010 3012 3014 3017 3019 3021 3024 3026 3028 3030 3031 3033 3035 3037 3038 3039 3040 3041 3042 3043 3044 3045 3046 3047 3048 3048 3050 3052 3053 3055 3056 3057 3058 3059 3061 3063 3065 3066 3067 3068 3068 3070 3073 3074 3075 3076 3077 3078 3078 3079 3080 3081 3082 3083 3084 3086 3088 3091 3094 3098 3101 3103 3105 3108 3110 3112 3114
2990 2991 2994 2997 3000 3002 2999 2994 2992 2992 2990 2989 2991 2993 2996 3000 3002 3004 3007 3009 3011 3013 3015 3017 3019 3021 3024 3026 3027 3029 3031 3033 3035 3036 3037 3038 3038 3039 3040 3041 3041 3042 3043 3043 3044 3045 3047 3049 3049 3050 3052 3053 3055 3057 3059 3060 3061 3062 3061 3062 3065 3067 3067 3068 3070 3070 3071 3072 3073 3074 3075 3076 3077 3079 3080 3083 3086 3089 3093 3096 3098 3101 3103 3105 3108 3110
2989 2990 2993 2995 2997 3000 2999 2994 2992 2992 2990 2990 2991 2992 2994 2999 3003 3004 3006 3009 3011 3013 3015 3017 3019 3020 3022 3024 3025 3027 3029 3031 3032 3034 3035 3035 3036 3036 3037 3037 3038 3038 3039 3039 3040 3042 3044 3045 3045 3045 3046 3048 3050 3052 3053 3055 3056 3056 3057 3058 3059 3059 3060 3061 3062 3063 3064 3066 3067 3069 3069 3070 3072 3073 3074 3077 3081 3084 3087 3090 3093 3095 3098 3100 3103 3105
2986 2988 2991 2994 2995 2997 2997 2995 2993 2993 2992 2991 2991 2992 2993 2998 3003 3005 3007 3009 3011 3013 3015 3017 3018 3020 3021 3023 3024 3025 3027 3028 3029 3031 3031 3032 3033 3033 3033 3034 3034 3034 3035 3035 3036 3038 3039 3040 3041 3041 3042 3042 3044 3045 3047 3048 3049 3050 3051 3052 3052 3052 3053 3053 3054 3057 3059 3059 3060 3061 3062 3063 3065 3066 3068 3071 3075 3078 3081 3085 3088 3090 3092 3095 3098 3100
2985 2986 2989 2992 2994 2996 2997 2996 2994 2993 2992 2991 2992 2992 2994 2998 3004 3007 3008 3010 3011 3013 3014 3016 3018 3019 3020 3021 3022 3023 3024 3025 3026 3027 3027 3028 3029 3029 3030 3030 3030 3030 3031 3031 3032 3033 3034 3035 3035 3036 3037 3037 3038 3040 3041 3041 3042 3043 3044 3045 3046 3046 3045 3045 3047 3050 3051 3051 3052 3052 3053 3054 3056 3059 3061 3064 3068 3072 3075 3079 3082 3085 3087 3090 3093 3095
2984 2986 2988 2990 2993 2996 2998 2997 2994 2993 2992 2992 2991 2992 2994 2999 3005 3009 3010 3010 3011 3012 3014 3016 3017 3018 3019 3020 3020 3021 3022 3023 3023 3023 3024 3024 3025 3026 3026 3026 3026 3026 3027 3028 3029 3029 3030 3030 3030 3031 3032 3032 3033 3035 3035 3035 3036 3037 3038 3039 3039 3039 3039 3040 3041 3042 3043 3044 3044 3042 3042 3044 3048 3051 3053 3055 3060 3065 3069 3073 3077 3080 3083 3086 3089 3092
2984 2986 2988 2989 2992 2995 2997 2996 2993 2992 2992 2992 2991 2992 2995 2999 3004 3008 3009 3010 3011 3012 3013 3014 3015 3016 3017 3017 3018 3019 3020 3020 3020 3021 3021 3021 3021 3022 3023 3023 3023 3023 3023 3024 3024 3025 3025 3026 3026 3026 3026 3027 3028 3029 3030 3030 3029 3030 3031 3031 3031 3031 3032 3033 3034 3035 3037 3038 3036 3033 3034 3036 3038 3041 3043 3047 3052 3058 3064 3069 3073 3076 3079 3082 3085 3088
2982 2985 2987 2989 2991 2993 2995 2995 2993 2992 2992 2992 2992 2993 2995 2998 3002 3005 3007 3008 3009 3010 3011 3012 3013 3014 3015 3015 3016 3016 3017 3017 3018 3018 3018 3018 3018 3018 3019 3019 3020 3019 3019 3019 3019 3020 3020 3021 3021 3021 3021 3022 3022 3023 3023 3023 3023 3023 3022 3021 3022 3022 3022 3023 3025 3027 3031 3033 3030 3027 3028 3029 3030 3033 3036 3041 3047 3053 3058 3064 3069 3072 3076 3078 3081 3083
2981 2983 2986 2988 2990 2991 2993 2994 2994 2994 2994 2994 2994 2995 2995 2996 3000 3004 3006 3006 3007 3008 3009 3010 3011 3012 3013 3013 3013 3014 3014 3015 3015 3015 3015 3015 3015 3015 3015 3015 3016 3015 3015 3014 3015 3015 3015 3015 3016 3016 3016 3015 3015 3015 3016 3016 3016 3015 3013 3012 3012 3012 3013 3015 3016 3017 3024 3029 3026 3022 3023 3025 3028 3031 3035 3039 3045 3050 3055 3061 3065 3069 3072 3074 3076 3079